Regional Weather Roundup
Issued by NWS

Home | Current Version | Previous Version | Text Only | Print | Product List | Glossary Off
Versions: 1 2 3 4 5 6 7 8 9 10 11 12 13 14 15 16 17 18 19 20 21 22 23 24 25 26 27 28 29 30 31 32 33 34 35 36 37 38 39 40 41 42 43 44 45 46 47 48 49 50

305
ASUS43 KLOT 282003
RWRIL

ILLINOIS REGIONAL WEATHER ROUNDUP
NATIONAL WEATHER SERVICE CHICAGO/ROMEOVILLE IL
300 PM CDT THU JUL 28 2016

NOTE: "FAIR" INDICATES FEW OR NO CLOUDS BELOW 12,000 FEET WITH NO
SIGNIFICANT WEATHER AND/OR OBSTRUCTIONS TO VISIBILITY.

* THESE STATIONS ARE NOT UNDER NWS QUALITY CONTROL. THEY ALSO MAY NOT
  REPORT WEATHER SUCH AS PRECIPITATION OR FOG.

ILZ001-002-007-009-015-016-024-282100-
NORTHWEST ILLINOIS

CITY           SKY/WX    TMP DP  RH WIND       PRES   REMARKS
MOLINE         MOSUNNY   85  69  58 W18       29.87R HX  89
STERLING*      SUNNY     85  73  67 W13       29.86F HX  91
SAVANNA*       MOSUNNY   84  71  64 W9        29.87R HX  89
$$

ILZ003-004-008-010-011-017-018-282100-
NORTH CENTRAL ILLINOIS

CITY           SKY/WX    TMP DP  RH WIND       PRES   REMARKS
ROCKFORD       TSTM      73  65  75 E6        29.88F
FREEPORT*      PTSUNNY   78  69  73 E13       29.91R
ROCHELLE*      PTSUNNY   73  67  81 E6        29.87F
DE KALB*       TSTM      72  66  82 SW13      29.89S
$$

ILZ005-006-012>014-019>023-282100-
NORTHEAST ILLINOIS

CITY           SKY/WX    TMP DP  RH WIND       PRES   REMARKS
CHICAGO-OHARE  LGT RAIN  74  71  91 CALM      29.88F FOG
CHICAGO-MIDWAY TSTM      76  66  71 E7        29.89R
AURORA         PTSUNNY   83  71  67 S6        29.86F HX  87
LANSING*       TSTM      74  63  70 N12G28    29.89R
WAUKEGAN       MOSUNNY   75  69  81 NE7       29.90R
DUPAGE AIRPORT PTSUNNY   75  65  70 E10       29.87F
KANKAKEE*      MOSUNNY   87  71  57 SW5       29.88S HX  93
WHEELING       CLOUDY    76  72  87 NE3       29.89F
MORRIS*        MOSUNNY   83  70  64 SW6       29.85F HX  87
NORTHERLY ISL    N/A     76  67  73 E2          N/A
$$

LMZ740>746-282100-
SOUTHERN LAKE MICHIGAN

STATION/POSITION SKY/WX   TEMP    WIND        PRES    VSBY  WAVE
                          AIR SEA DIR/SP/G                  HT/PER
                          (F)     (DEG/KT/KT) (MB)    (MI)  (FT/S)
WILMETTE HARBOR            74 74   60/  4/  4   N/A           1/ 3
HARRISON CRIB              77      20/  8/  8   N/A
BURNHAM HARBOR             76     170/  5/  9   N/A
CALUMET HARBOR             78     360/  5/  7 1011.2F
BURNS HARBOR               80      40/  8/  9 1011.9F
MICHIGAN CITY              79     340/  9/  9   N/A
MICHIGAN CITY 6N           79 79   10/  8/  8   N/A           0
ST. JOSEPH                 77 79  360/  6/  8 1011.3F         1
$$

ILZ025>027-034>036-040-047-049-050-058-095>099-282100-
WEST-CENTRAL ILLINOIS

CITY           SKY/WX    TMP DP  RH WIND       PRES   REMARKS
QUINCY         MOSUNNY   80  71  74 N10       29.91S HX  84
GALESBURG*     MOSUNNY   85  70  61 W12       29.89R HX  89
MACOMB*        CLOUDY    79  72  79 W5        29.91F HX  82
JACKSONVILLE*  SUNNY     85  72  65 NW9       29.88S HX  91
PITTSFIELD*    SUNNY     85  71  62 NW3       29.90F HX  91
$$

ILZ028>032-037-038-041>044-048-051>054-059>061-282100-
CENTRAL ILLINOIS

CITY           SKY/WX    TMP DP  RH WIND       PRES   REMARKS
PONTIAC        MOSUNNY   83  76  79 CALM      29.89R HX  91
BLOOMINGTON    LGT RAIN  82  72  71 CALM      29.89S HX  87
DECATUR        CLOUDY    85  74  69 SW10      29.86F THUNDER HX  92
PEORIA         SUNNY     87  69  54 NW6       29.86F HX  91
LACON*         PTSUNNY   83  69  62 CALM      29.86S HX  86
LINCOLN*       TSTM      76  70  81 SW5G18    29.89R VSB 3/4
SPRINGFIELD    TSTM      73  64  73 CALM      29.88S
TAYLORVILLE    TSTM      73  67  79 MISG      29.90R VSB 1
$$

ILZ033-039-045-046-055>057-062-063-282100-
EAST-CENTRAL ILLINOIS

CITY           SKY/WX    TMP DP  RH WIND       PRES   REMARKS
CHAMPAIGN      MOSUNNY   83  73  72 S6        29.88F HX  89
MATTOON        CLOUDY    83  70  64 CALM      29.87F HX  87
PARIS*         MOSUNNY   83  75  76 CALM      29.87F HX  90
$$

ILZ079-100>102-282100-
SOUTHWEST ILLINOIS

CITY           SKY/WX    TMP DP  RH WIND       PRES   REMARKS
CAHOKIA*       SUNNY     91  68  46 NW16      29.86F HX  95
SPARTA*        CLOUDY    87  75  66 NW3       29.87F HX  96
$$

ILZ064>066-069>071-074>076-080>082-084>086-088>090-092>094-282100-
SOUTH-CENTRAL ILLINOIS

CITY           SKY/WX    TMP DP  RH WIND       PRES   REMARKS
CARBONDALE     CLOUDY    88  74  63 S5        29.86F HX  96
CAIRO*         MOSUNNY   85  78  78 SW5       29.88F HX  97
EFFINGHAM*     CLOUDY    83  76  80 CALM      29.87F HX  91
MARION         PTSUNNY   88  77  70 S8        29.88F HX 100
MT. VERNON     PTSUNNY   81  70  69 MISG      29.90R THUNDER HX  84
CENTRALIA*     MOSUNNY   87  77  72 CALM      29.85F HX  98
SALEM*         MOSUNNY   87  76  68 S6        29.86F HX  98
METROPOLIS*    MOSUNNY   87  76  71 W3        29.89F HX  98
$$

ILZ067-068-072-073-078-083-087-091-282100-
SOUTHEAST ILLINOIS

CITY           SKY/WX    TMP DP  RH WIND       PRES   REMARKS
LAWRENCEVILLE  PTSUNNY   85  75  72 S3        29.86F HX  93
FLORA*         MOSUNNY   87  77  70 SW5       29.86F HX  98
FAIRFIELD*     SUNNY     84  76  76 CALM      29.85F HX  94
HARRISBURG*    MOSUNNY   86  76  72 SW7       29.87F HX  96
ROBINSON*      MOSUNNY   84  75  73 W5        29.86F HX  92
CARMI*         SUNNY     85  77  77 SW7       29.86F HX  96
$$

ABBREVIATIONS USED IN REMARKS
   TC - TEMPERATURE IN CELSIUS
  WCI - WIND CHILL INDEX
   HX - HEAT INDEX
  VSB - VISIBILITY
$$





USA.gov is the U.S. government's official web portal to all federal, state and local government web resources and services.